GCFVLEAS

Guest
Details From GCFV - Fuerteventura
To LEAS - Asturias
Flight Number -
Tags decoded
Created
Modified
Stats Distance 996 nm / 1,845 km
Max Altitude 0 ft / 0 m
Waypoints 3
Social Downloads 0
Likes 0
Share VATSIM

Download

Looking for another format? Having issues loading an existing format? Contact us
Advertisement - Login to hide

Notes

Requested: GCFV TUXAL LEAS

Route

GCFV TUXAL LEAS

ID Type Via Altitude Latitude Longitude Leg Dist Tot Dist Heading (true) Name
O GCFV APT - 0 ft / 0 m 28.44788˚ -13.86489˚ - 0 nm - Fuerteventura
TUXAL FIX - 0 ft / 0 m 43.63889˚ -6.35639˚ 981 nm 981 nm 20° / 24° -
O LEAS APT - 0 ft / 0 m 43.56350˚ -6.03467˚ 14 nm 996 nm 108° / 108° Asturias

Altitude Profile

Advertisement - Login to hide

Weather


0- 5 10 15 20 25 30 35+ Temperature / ° C

Clouds and Precipitation
Forecast for 2018-05-27 12:00 UTC. Updated an hour ago

Ground ~20,000 ft ~40,000 ft Winds

GCFV

Details ICAO GCFV (FUE)
Name Fuerteventura
Region Canary Islands
Timezone Atlantic/Canary (UTC+1.0)
Stats Elevation 85 ft / 26 m (AMSL)
Location 28.447882° -13.864892°
Runways 2
Magnetic Variation 4.047° W

METAR

GCFV 271200Z 03015KT 350V060 9999 FEW045 23/10 Q1020

Decode

TAF

TAF TAF GCFV 270800Z 2709/2809 04012KT 9999 SCT045 TX25/2714Z TN16/2805Z BECMG 2715/2718 34011KT

Decode

Departure Runways

ID Width Length Bearing (true) Bearing (mag) Surface Threshold Offset Overrun Length
01L 148 ft / 45 m 5,433 ft / 1,656 m 1.67° 5.72° Asphalt 0 ft / 0 m 984 ft / 300 m
01R 148 ft / 45 m 7,905 ft / 2,409 m 1.66° 5.71° Asphalt 0 ft / 0 m 3,281 ft / 1,000 m
19L 148 ft / 45 m 7,905 ft / 2,409 m 181.66° 185.71° Asphalt 0 ft / 0 m 197 ft / 60 m
19R 148 ft / 45 m 5,433 ft / 1,656 m 181.67° 185.72° Asphalt 0 ft / 0 m 820 ft / 250 m

LEAS

Details ICAO LEAS (OVD)
Name Asturias
Region Spain
Timezone Europe/Madrid (UTC+2.0)
Stats Elevation 416 ft / 127 m (AMSL)
Location 43.563496° -6.034670°
Runways 1
Magnetic Variation 1.569° W

METAR

LEAS 271200Z VRB02KT 9999 FEW012 BKN027 15/13 Q1016 NOSIG

Decode

TAF

TAF LEAS 270800Z 2709/2809 29008KT 8000 SCT015 BKN020 TX16/2715Z TN13/2806Z PROB30 TEMPO 2709/2715 3000 -DZ BR BKN010 PROB40 TEMPO 2721/2809 3000 BR SCT005 BKN010

Decode

Destination Runways

ID Width Length Bearing (true) Bearing (mag) Surface Threshold Offset Overrun Length
11 148 ft / 45 m 7,216 ft / 2,200 m 108.09° 109.66° Asphalt 0 ft / 0 m 164 ft / 50 m
29 148 ft / 45 m 7,216 ft / 2,200 m 288.10° 289.67° Asphalt 0 ft / 0 m 164 ft / 50 m

Approach Navaids

Runway Type Ident Frequency Range Bearing (true) Bearing (mag) Slope Elevation
29 Localiser AVS 110.10 MHz 18 nm / 33 km 288.30° 289.87° - 416 ft / 127 m (AMSL)
29 Glidescope AVS 110.10 MHz 10 nm / 19 km 288.09° 289.66° 3.00° 416 ft / 127 m (AMSL)
29 DME AVS 110.10 MHz 18 nm / 33 km - - - 430 ft / 131 m (AMSL)

Popular Alternatives